Change the Weather History Date:

Sunday, February 26, 2012

  Actual Average Record
Temperature  
Mean Temperature 62 °F -  
Max Temperature 78 °F 69 °F 84 °F (2002)
Min Temperature 45 °F 48 °F 37 °F (2013)
Degree Days  
Heating Degree Days 4    
Growing Degree Days 12 (Base 50)    
Moisture  
Dew Point 29 °F    
Average Humidity 35    
Maximum Humidity 66    
Minimum Humidity 8    
Precipitation  
Precipitation 0.00 in - - ()
Sea Level Pressure  
Sea Level Pressure 29.87 in    
Wind  
Wind Speed 6 mph (WSW)    
Max Wind Speed 21 mph    
Max Gust Speed -    
Visibility 10 miles    
Events      
Averages and records for this station are not official NWS values.
T = Trace of Precipitation, MM = Missing Value Source: NWS Daily Summary

Daily Weather History Graph

Daily Weather History Graph

Search for Another Location

Airport or City:

Trip Planner

Search our weather history database for the weather conditions in past years. The results will help you decide how hot, cold, wet, or windy it might be!

Date:

Astronomy

Feb. 26, 2012 Rise Set
Actual Time 6:14 AM PST 5:37 PM PST
Civil Twilight 5:49 AM PST 6:01 PM PST
Nautical Twilight 5:21 AM PST 6:30 PM PST
Astronomical Twilight 4:52 AM PST 6:59 PM PST
Moon 8:30 AM PST (2/26) 10:18 PM PST (2/26)
Length of Visible Light 12h 12m
Length of Day
11h 22m
Waxing Crescent, 21% of the Moon is Illuminated
Feb 26
Waxing Crescent
Feb 29
First Quarter
Mar 8
Full
Mar 14
Last Quarter
Mar 22
New

Hourly Weather History & Observations

Time (PST) Temp. Windchill Dew Point Humidity Pressure Visibility Wind Dir Wind Speed Gust Speed Precip Events Conditions
12:56 AM 55.0 °F - 32.0 °F 42% 29.88 in 10.0 mi West 6.9 mph - N/A   Clear
1:56 AM 57.9 °F - 28.9 °F 33% 29.88 in 10.0 mi SSW 5.8 mph - N/A   Clear
2:56 AM 50.0 °F - 34.0 °F 54% 29.88 in 10.0 mi South 5.8 mph - N/A   Clear
3:56 AM 48.0 °F - 30.9 °F 52% 29.88 in 10.0 mi Calm Calm - N/A   Clear
4:56 AM 46.0 °F 43.9 °F 35.1 °F 66% 29.90 in 10.0 mi SW 4.6 mph - N/A   Clear
5:56 AM 45.0 °F - 33.1 °F 63% 29.91 in 10.0 mi Calm Calm - N/A   Clear
6:56 AM 48.0 °F - 35.1 °F 61% 29.93 in 10.0 mi Calm Calm - N/A   Clear
7:56 AM 57.0 °F - 39.0 °F 51% 29.95 in 10.0 mi West 3.5 mph - N/A   Clear
8:56 AM 66.9 °F - 37.9 °F 34% 29.96 in 10.0 mi NW 6.9 mph - N/A   Clear
9:56 AM 72.0 °F - 30.0 °F 21% 29.95 in 10.0 mi NNW 8.1 mph - N/A   Clear
10:56 AM 75.0 °F - 12.0 °F 9% 29.94 in 10.0 mi North 10.4 mph - N/A   Clear
11:56 AM 75.9 °F - 9.0 °F 8% 29.91 in 10.0 mi Variable 4.6 mph - N/A   Clear
12:56 PM 77.0 °F - 12.0 °F 8% 29.87 in 10.0 mi ENE 5.8 mph - N/A   Clear
1:56 PM 75.9 °F - 18.0 °F 11% 29.85 in 10.0 mi SSE 3.5 mph - N/A   Clear
2:56 PM 78.1 °F - 15.1 °F 9% 29.83 in 10.0 mi North 3.5 mph - N/A   Clear
3:56 PM 75.9 °F - 24.1 °F 15% 29.82 in 10.0 mi ESE 3.5 mph - N/A   Clear
4:56 PM 72.0 °F - 28.9 °F 20% 29.82 in 10.0 mi WSW 4.6 mph - N/A   Clear
5:56 PM 69.1 °F - 27.0 °F 21% 29.82 in 10.0 mi SW 4.6 mph - N/A   Clear
6:56 PM 64.9 °F - 28.0 °F 25% 29.83 in 10.0 mi WSW 8.1 mph - N/A   Clear
7:56 PM 63.0 °F - 35.1 °F 35% 29.83 in 10.0 mi West 12.7 mph - N/A   Clear
8:56 PM 60.1 °F - 37.9 °F 44% 29.84 in 10.0 mi West 5.8 mph - N/A   Clear
9:56 PM 57.9 °F - 39.0 °F 49% 29.84 in 10.0 mi West 6.9 mph - N/A   Clear
10:56 PM 59.0 °F - 41.0 °F 51% 29.84 in 10.0 mi WSW 20.7 mph - N/A   Clear
11:56 PM 57.9 °F - 37.9 °F 47% 29.83 in 10.0 mi West 15.0 mph - N/A   Clear